RH
20 10 67 90 98 95 92 64 52 55 43 51 44 69 64 84 95 96 91 80 94 96 84 80 99 99 99 99 90 81 61 51 43 35 30 26 22 20 20 19 17 15 14 12 10 9 8
7 49 89 83 95 93 97 91 68 54 43 50 54 59 49 84 89 97 94 79 69 91 87 71 99 98 99 99 95 81 66 48 41 36 32 27 24 22 21 20 17 14 12 10 9 9 9
16 81 63 59 70 77 98 94 76 57 52 54 57 64 58 82 95 97 95 73 71 96 96 88 99 96 99 96 84 58 54 56 47 40 32 25 24 24 21 19 15 13 11 10 9 9 11
12 10 12 16 32 50 91 93 76 52 63 64 57 65 62 58 93 78 80 63 60 95 89 78 99 90 99 98 92 82 76 62 48 37 29 27 28 27 23 18 14 11 10 10 10 10 16
14 13 10 13 29 53 86 80 58 60 57 65 60 78 72 86 80 66 58 41 86 95 66 83 99 98 99 94 98 89 74 61 47 34 30 33 34 26 21 17 12 10 10 10 11 18 28
16 21 15 12 18 55 64 65 64 62 65 68 63 78 86 80 70 55 36 48 94 88 94 92 97 99 97 98 95 87 76 64 56 46 38 36 30 25 22 15 11 12 14 15 16 34 34
19 20 27 23 15 22 39 57 54 47 45 52 60 68 52 52 49 80 91 94 97 93 91 97 91 83 96 95 86 85 73 65 57 48 41 33 29 24 20 16 16 18 24 25 30 47 44
14 21 27 31 25 21 23 26 33 39 41 44 41 48 29 64 76 89 93 91 96 96 98 99 84 98 98 100 87 88 74 57 52 40 33 30 26 26 25 24 24 29 30 40 40 55 71
14 11 26 38 44 38 40 39 40 49 60 76 72 58 65 65 79 69 97 96 96 95 94 98 98 98 100 97 85 77 68 49 38 34 30 28 30 27 30 32 30 34 48 61 73 88 84
27 17 16 33 47 47 46 50 62 73 88 84 73 55 52 64 91 80 96 97 95 89 90 97 98 96 92 85 79 64 50 42 34 34 31 31 31 32 32 35 43 50 61 81 97 99 96
35 30 22 22 40 51 56 63 56 63 70 80 79 69 67 62 79 93 88 95 91 71 86 97 97 82 70 66 54 47 38 33 36 34 34 37 41 38 46 57 66 81 81 96 100 100 99
35 37 39 37 29 32 40 44 49 64 74 76 74 75 73 77 85 81 83 73 61 59 97 96 92 82 68 60 58 43 49 41 38 41 42 48 49 51 66 79 78 87 98 95 99 100 97
16 35 40 39 38 42 43 40 35 48 60 69 77 80 78 81 77 77 88 72 65 93 98 96 89 81 63 63 54 53 51 46 51 50 51 52 61 71 78 81 87 98 89 92 85 92 82
29 17 35 44 41 38 39 41 42 39 46 53 58 63 70 77 78 78 79 64 80 99 100 87 80 80 78 68 62 66 70 72 66 65 52 56 70 71 79 82 88 99 96 96 95 97 90
53 18 19 34 42 36 38 39 38 39 43 52 58 61 60 52 58 56 54 48 92 89 80 83 86 84 83 69 73 81 88 86 88 82 72 65 67 70 76 80 80 81 98 99 97 93 98
17 52 14 22 26 30 30 34 34 33 38 43 43 46 54 54 45 44 39 71 82 75 73 77 77 68 70 75 80 78 83 83 85 78 78 76 63 64 73 79 82 83 89 92 84 92 96
5 15 48 12 21 18 22 26 31 31 32 32 28 32 48 48 40 34 34 76 82 76 74 76 73 73 77 81 80 79 73 76 75 74 73 95 91 63 66 71 78 77 76 78 93 98 96
48 4 11 46 12 19 17 18 22 22 24 25 24 25 38 34 34 42 66 78 80 81 79 82 83 84 82 78 73 70 70 73 75 83 99 98 98 88 57 66 64 78 79 72 83 80 89
60 46 4 7 42 16 14 13 17 20 23 24 23 27 33 34 36 43 58 64 72 73 74 75 81 79 76 71 63 60 62 72 75 79 87 89 91 87 40 62 62 65 60 65 75 88 90
45 60 48 5 4 32 30 12 14 16 19 21 24 30 34 35 39 41 47 54 56 60 61 62 63 64 66 68 68 65 58 63 70 74 77 79 71 68 62 43 50 52 57 67 72 85 77
54 49 61 45 6 4 15 38 10 13 16 20 23 27 30 34 35 36 35 40 44 46 48 50 53 58 61 59 53 51 46 47 44 53 56 70 59 51 41 37 46 40 38 51 63 61 76
51 54 52 61 46 8 3 6 31 22 11 14 20 24 28 29 30 33 34 35 35 36 38 37 40 42 45 46 44 44 38 40 39 42 48 58 61 62 47 32 29 29 32 38 48 55 58
41 47 56 54 62 46 10 4 4 19 32 12 13 17 21 22 27 30 32 30 31 32 34 37 39 40 37 37 36 34 31 30 32 34 41 57 64 73 66 44 40 35 33 26 26 37 34
26 45 49 58 57 63 46 12 4 3 8 40 19 12 16 19 21 25 27 27 28 31 32 34 36 38 36 36 33 32 30 28 30 33 42 49 66 86 73 43 41 19 28 33 34 31 41
22 45 49 53 62 60 66 45 11 4 4 6 30 44 16 12 14 18 22 24 27 29 29 31 32 34 38 36 32 27 24 26 27 32 38 58 78 83 66 70 34 28 26 32 37 28 34
26 49 54 52 57 69 63 71 41 9 5 4 6 13 46 49 19 13 15 17 19 23 27 29 33 32 33 34 34 33 22 21 24 29 32 40 75 95 82 70 53 25 26 26 31 34 26
40 56 59 56 54 66 73 78 66 36 7 5 5 6 8 24 50 52 35 22 16 18 20 23 29 30 34 39 45 42 32 30 30 31 32 41 62 73 85 95 44 28 33 36 34 27 30
54 64 69 61 56 64 79 84 90 62 32 7 6 6 6 5 12 32 51 56 53 44 26 22 28 26 38 46 49 45 44 43 43 38 37 41 43 46 63 89 60 27 32 40 42 44 45
70 69 72 67 62 65 78 96 93 90 61 28 8 6 6 6 7 9 15 41 52 57 62 43 25 31 41 49 57 60 61 62 57 69 53 51 41 44 44 31 29 31 34 38 40 40 35
Wind_Speed
41 40 37 35 33 30 24 14 9 7 7 9 10 10 12 16 20 19 13 10 19 29 32 35 21 22 14 29 16 17 15 12 11 11 11 10 10 10 11 10 11 11 12 12 12 14 17
40 41 38 38 37 40 24 6 7 8 9 10 8 8 10 10 13 10 8 4 16 21 43 35 18 30 11 22 20 14 15 14 13 12 11 11 11 11 11 11 11 11 10 10 11 14 20
43 37 32 32 37 31 29 6 7 9 7 7 6 7 5 4 7 9 9 5 8 6 40 23 22 34 13 20 20 16 14 12 11 11 10 10 11 10 10 9 11 12 11 11 14 15 20
44 43 38 36 35 33 17 6 10 7 5 5 8 6 1 4 2 7 7 5 9 15 35 29 19 31 15 12 9 16 13 10 10 10 10 10 10 10 8 9 9 10 11 8 13 18 20
44 48 46 41 35 29 23 19 17 16 14 9 9 9 4 3 4 4 8 8 10 25 27 29 23 22 18 8 18 16 13 10 9 9 9 8 7 7 7 8 8 7 8 13 14 17 20
42 49 48 42 39 31 26 21 21 20 16 14 13 16 12 7 5 4 6 15 20 25 31 29 21 19 15 17 17 13 10 8 7 6 6 5 5 5 6 6 4 7 12 13 15 17 24
40 47 49 46 39 34 30 26 22 19 17 13 16 15 12 9 9 10 19 19 33 33 42 13 28 15 27 17 13 10 8 6 5 5 5 4 3 3 4 5 7 10 11 15 14 20 26
38 46 47 44 43 35 31 27 23 19 17 16 21 20 17 14 18 19 18 36 33 32 31 21 31 12 17 17 11 7 6 4 4 3 3 3 2 2 3 5 7 10 11 16 15 14 29
37 42 47 46 42 41 37 31 25 22 20 22 23 26 24 16 19 18 26 29 37 28 32 29 25 24 20 16 11 8 5 3 2 2 3 2 2 1 3 4 8 9 11 12 19 25 25
36 38 39 43 45 42 38 36 35 32 28 29 23 16 16 15 18 17 25 40 31 27 26 18 19 16 16 15 11 9 5 4 3 2 3 2 4 3 4 5 8 12 10 15 20 22 10
34 35 39 38 39 40 40 41 38 33 30 27 34 26 17 17 22 23 27 26 23 11 6 7 17 17 13 7 12 7 5 4 3 1 3 5 4 4 3 3 7 7 15 19 22 15 14
33 32 35 37 37 37 36 37 40 38 34 29 36 38 29 24 19 34 35 16 9 5 7 7 13 13 10 11 7 7 5 4 3 4 3 4 4 2 0 4 5 9 15 14 5 5 3
35 31 29 33 35 35 34 33 35 35 30 27 26 32 31 23 24 25 18 10 4 11 10 11 13 11 11 10 10 9 7 7 6 4 4 4 3 3 3 5 4 8 14 5 3 1 3
40 34 31 29 33 34 35 34 30 27 25 21 21 22 22 18 12 11 5 7 15 6 8 16 13 13 10 10 10 8 6 6 6 5 4 3 3 3 3 5 6 5 7 3 4 3 5
38 38 33 30 30 32 33 34 31 29 24 20 19 18 17 16 11 9 3 11 9 12 21 16 14 9 7 7 6 4 5 5 5 3 2 2 3 2 2 3 5 4 3 2 4 5 4
37 35 35 31 29 28 29 31 31 31 30 28 26 28 26 21 17 15 24 28 21 21 16 8 4 3 5 6 4 2 5 7 5 4 4 3 2 4 4 5 4 3 6 1 3 3 4
37 34 32 32 28 26 25 26 26 27 27 25 26 32 26 24 24 25 35 29 20 14 11 9 10 8 7 5 5 5 5 6 8 3 1 4 3 4 7 5 3 3 2 2 5 4 2
36 34 32 29 28 23 22 21 21 21 21 19 19 24 19 12 12 24 24 21 19 15 13 11 9 8 7 6 7 5 6 4 5 5 3 4 6 9 1 5 9 9 7 6 2 2 7
37 34 32 30 26 25 21 19 16 17 17 17 20 21 18 13 17 19 20 17 15 10 8 7 6 7 7 7 4 4 4 5 5 5 5 5 4 9 2 2 5 6 7 10 10 8 10
36 34 31 29 28 23 22 17 14 14 14 13 14 12 15 11 13 13 13 12 11 10 9 7 5 4 5 5 5 4 5 5 6 5 6 10 8 11 11 13 17 23 22 16 16 8 7
36 34 31 29 26 25 21 19 15 11 11 10 11 13 13 10 11 9 9 8 8 6 4 3 2 3 4 5 6 5 7 8 8 9 10 10 14 18 19 22 27 28 24 25 25 22 17
34 34 31 27 26 24 22 19 15 14 8 8 6 6 7 7 6 6 5 5 5 3 1 1 2 3 5 5 6 9 8 9 7 9 10 15 14 22 30 21 15 27 27 23 23 25 27
33 34 32 28 25 23 23 20 18 14 12 8 5 3 2 1 1 2 0 2 2 4 3 5 6 7 8 8 10 11 13 14 17 18 18 18 15 17 11 16 30 12 4 8 14 22 22
32 33 32 30 25 23 21 21 18 16 15 10 9 8 7 6 6 5 5 5 6 6 6 6 7 8 8 11 13 15 17 16 18 18 20 20 17 14 15 13 4 5 17 22 15 11 14
29 31 31 31 29 23 20 18 19 16 14 13 11 10 11 12 11 12 12 12 12 12 11 10 12 13 14 15 16 13 15 13 10 12 14 15 16 10 6 7 20 2 5 11 7 11 13
28 29 30 30 32 27 22 17 16 18 14 12 12 12 11 12 12 13 15 16 17 17 18 17 17 17 18 17 15 8 5 8 5 6 10 12 14 16 8 5 5 5 10 15 12 6 8
29 26 28 29 31 31 24 20 15 15 17 14 12 13 13 14 14 13 14 16 18 19 20 19 21 20 20 18 17 12 10 13 6 6 6 10 13 22 22 10 13 17 11 9 4 4 20
28 27 26 27 29 31 27 22 18 15 16 17 16 13 13 15 16 18 19 19 17 17 18 18 20 19 15 13 9 8 10 9 11 11 12 11 11 12 8 10 9 1 5 12 21 26 28
28 27 26 26 27 30 28 24 20 19 15 16 17 17 17 15 15 18 20 23 23 21 20 20 19 21 13 9 7 8 13 21 29 21 21 15 13 12 12 12 22 31 38 37 31 21 19
Wind_Direction
355 347 358 353 337 333 326 319 320 329 313 297 288 284 277 264 257 244 216 233 218 222 225 200 214 219 199 182 178 175 183 185 194 199 200 206 215 222 230 240 252 260 268 268 271 279 284
2 2 360 343 336 324 295 298 328 355 330 304 285 282 282 262 257 178 179 208 214 221 211 192 163 215 213 166 162 157 170 180 191 199 206 210 215 223 234 245 254 261 262 269 282 288 289
11 10 1 351 344 341 301 127 29 20 339 309 328 313 302 304 208 182 177 202 202 218 197 182 195 204 194 171 149 148 162 172 189 199 209 217 221 224 234 251 256 260 267 282 289 289 290
21 24 20 13 13 18 38 60 66 7 358 347 355 353 342 344 33 116 158 199 179 194 182 184 180 189 162 184 193 163 166 173 186 195 204 214 223 237 246 251 262 275 286 296 301 304 302
28 28 25 19 20 28 47 50 48 45 31 21 30 39 84 58 139 146 170 178 172 165 167 174 155 188 175 182 203 183 174 184 193 200 211 222 236 250 255 260 274 285 292 308 314 308 299
31 34 31 25 24 30 34 37 38 35 42 47 55 57 84 99 119 78 147 163 139 151 159 176 188 188 166 164 153 154 168 187 202 215 223 236 246 252 263 271 273 286 305 315 312 304 295
33 38 36 32 30 33 36 32 32 35 42 48 65 71 68 71 93 107 132 138 142 142 160 139 168 175 160 147 139 142 152 171 194 205 218 233 237 253 275 281 292 300 306 301 309 298 298
33 40 37 35 39 42 46 49 44 47 53 53 69 62 63 84 111 129 135 141 139 138 128 112 171 175 156 159 160 155 153 172 184 200 195 206 219 245 276 293 293 292 309 311 309 307 305
32 38 44 39 41 44 50 56 52 48 51 63 75 77 80 100 119 137 122 133 131 133 118 115 117 139 151 158 176 181 178 167 174 198 185 188 184 226 279 286 286 300 307 315 309 313 318
32 37 44 45 43 45 45 44 49 52 54 57 60 68 80 99 127 144 116 120 104 99 91 93 114 112 129 137 154 162 162 180 187 179 168 194 201 216 265 270 294 314 310 316 317 319 317
30 37 42 45 46 45 48 49 49 52 45 48 60 61 99 109 110 103 122 103 112 72 73 77 99 118 117 132 138 145 150 150 125 149 161 182 193 227 275 311 320 308 325 318 309 306 305
34 39 42 43 43 41 37 38 41 47 57 69 68 64 73 105 97 115 123 85 82 90 62 105 113 111 112 123 122 127 101 97 93 110 147 167 198 201 2 344 333 328 334 316 309 286 275
34 35 38 41 40 39 35 32 36 42 64 79 73 62 64 80 93 124 129 41 41 59 110 124 125 115 107 99 109 98 85 85 73 107 127 140 140 126 59 8 355 350 355 337 353 326 244
25 33 34 41 44 40 36 34 36 43 53 68 65 62 64 70 102 142 130 24 67 85 121 133 120 106 100 97 91 90 81 65 79 84 113 139 149 157 37 0 340 353 21 355 305 323 300
23 25 32 37 44 45 42 42 39 42 44 50 52 50 48 89 134 129 86 88 94 105 121 119 107 88 85 104 108 96 80 64 52 71 56 93 148 139 302 317 347 349 346 274 268 292 293
28 23 26 33 39 47 46 47 51 49 49 54 61 67 64 74 104 122 120 98 104 108 107 84 89 100 121 115 105 111 57 34 25 82 75 63 249 227 257 263 263 346 3 346 343 314 295
24 27 25 29 33 39 47 50 54 53 55 57 61 65 66 86 101 105 97 96 96 95 94 82 90 103 103 88 79 63 55 42 27 31 39 347 298 228 259 224 247 311 307 335 279 214 235
23 23 27 26 30 30 39 44 49 55 57 51 52 63 62 74 93 92 94 99 101 94 90 86 78 82 74 71 55 60 45 5 350 331 360 320 292 293 249 259 271 271 269 293 273 236 235
19 20 21 26 26 28 25 39 46 54 53 51 50 60 64 76 83 88 92 92 84 74 70 74 84 75 62 38 44 38 25 2 347 343 339 338 301 309 335 261 287 280 276 278 301 279 243
21 17 17 20 24 24 24 22 32 35 46 44 54 64 68 67 72 76 83 81 82 74 68 67 72 51 17 6 356 337 338 333 332 324 319 317 289 279 257 284 289 284 283 252 281 265 266
16 17 15 14 16 21 22 18 17 18 23 53 58 72 69 64 64 62 71 84 75 74 74 60 33 355 2 358 343 335 333 318 313 293 297 298 291 298 296 300 293 286 281 268 257 255 261
7 11 13 12 7 10 16 20 11 8 5 7 35 69 81 90 70 60 48 50 42 31 341 343 324 321 318 308 296 292 291 297 292 291 290 294 288 303 304 311 293 291 289 277 259 252 254
357 0 5 8 9 2 4 10 14 5 2 349 332 331 21 30 106 117 166 344 341 337 329 325 317 316 319 313 306 301 299 299 291 285 283 280 285 305 294 315 309 302 29 330 306 264 259
348 351 353 359 5 3 357 357 4 8 1 349 340 304 290 290 281 273 259 257 255 254 263 278 289 288 287 291 292 291 289 279 274 274 270 270 276 288 287 326 341 300 306 299 290 282 277
340 342 344 349 354 358 355 351 348 355 1 355 333 326 309 292 282 275 272 275 274 273 271 274 278 279 283 289 298 298 282 277 268 258 253 254 256 260 255 274 292 315 351 13 312 316 294
331 337 338 343 344 346 349 345 341 337 345 353 344 326 306 306 294 283 274 277 273 277 282 283 282 281 286 292 298 278 285 293 275 271 256 257 242 240 273 286 269 267 311 323 325 321 6
321 328 332 336 337 336 338 339 335 328 329 335 339 334 326 303 290 292 292 289 285 283 283 284 284 286 289 289 283 278 270 271 273 263 275 256 255 246 253 256 275 285 302 324 335 318 325
312 317 322 329 331 330 328 334 330 324 320 324 325 328 327 323 305 282 280 280 283 290 288 278 283 285 284 273 272 273 276 278 276 271 282 275 277 271 237 223 272 264 326 329 307 299 301
304 308 315 320 323 324 322 325 332 323 317 314 315 319 322 324 319 303 288 275 277 279 281 278 273 273 262 260 261 280 278 280 285 285 283 265 264 266 257 267 284 290 292 294 292 290 293